Regional Weather Roundup
Issued by NWS

Home | Current Version | Previous Version | Graphics & Text | Print | Product List | Glossary On
Versions: 1 2 3 4 5 6 7 8 9 10 11 12 13 14 15 16 17 18 19 20 21 22 23 24 25 26 27 28 29 30 31 32 33 34 35 36 37 38 39 40 41 42 43 44 45 46 47 48 49 50
000
ASUS43 KBIS 232110
RWRND

NORTH DAKOTA REGIONAL WEATHER ROUNDUP
NATIONAL WEATHER SERVICE BISMARCK ND
300 PM CST THU FEB 23 2017

NOTE: "FAIR" INDICATES FEW OR NO CLOUDS BELOW 12,000 FEET WITH NO
SIGNIFICANT WEATHER AND/OR OBSTRUCTIONS TO VISIBILITY.


NDZ001>003-009>011-017-232200-
NORTHWEST NORTH DAKOTA

CITY           SKY/WX    TMP DP  RH WIND       PRES   REMARKS
WILLISTON      CLOUDY    27  20  75 NE10      30.09R WCI  17
MINOT          FAIR      27  16  63 N12       30.08R WCI  17
MINOT AFB      SUNNY     24  15  67 NE12      30.07S WCI  13
$$

NDZ018>021-031>035-040>046-232200-
SOUTHWEST NORTH DAKOTA

CITY           SKY/WX    TMP DP  RH WIND       PRES   REMARKS
BISMARCK       CLOUDY    32  26  78 N9        30.04S
DICKINSON      LGT SNOW  24  22  91 NE16      29.99R FOG     WCI  11
GARRISON         N/A     25  14  63 NE10G20   30.06R WCI  15
HETTINGER ARPT LGT SNOW  30  25  81 N13       29.98R WCI  20
$$

NDZ004>008-012>016-024-026-027-054-232200-
NORTHEAST NORTH DAKOTA

CITY           SKY/WX    TMP DP  RH WIND       PRES   REMARKS
GRAND FORKS    CLOUDY    27  14  58 N18       30.08R WCI  14
GRND FRKS AFB  CLOUDY    25  16  68 NE14      30.08R WCI  13
DEVILS LAKE    CLOUDY    24  22  91 N9        30.06R WCI  14
$$

NDZ022-023-025-028>030-036>039-047>053-232200-
SOUTHEAST NORTH DAKOTA

CITY           SKY/WX    TMP DP  RH WIND       PRES   REMARKS
FARGO          CLOUDY    30  21  69 N17       30.03S WCI  18
JAMESTOWN      CLOUDY    30  24  78 N10       30.01R
$$





USA.gov is the U.S. government's official web portal to all federal, state and local government web resources and services.